Wilmington, DE

7:45 AM EDT on August 19, 2017 (GMT -0400)
New Castle County

Weather History for KILG - July, 2013

Change the Weather History Date:

Monday, July 15, 2013

  Actual Average Record
Temperature  
Mean Temperature 84 °F 77 °F  
Max Temperature 95 °F 86 °F 99 °F (1997)
Min Temperature 73 °F 68 °F 53 °F (1940)
Degree Days  
Heating Degree Days 0 0  
Month to date heating degree days 0 0  
Since 1 June heating degree days 0 15  
Since 1 July heating degree days 0 0  
Cooling Degree Days 19 12  
Month to date cooling degree days 235 176  
Year to date cooling degree days 595 486  
Since 1 June cooling degree days 488 407  
Growing Degree Days 34 (Base 50)    
Moisture  
Dew Point 73 °F    
Average Humidity 69    
Maximum Humidity 88    
Minimum Humidity 49    
Precipitation  
Precipitation 0.00 in 0.16 in 1.22 in (1926)
Month to date precipitation 1.80 2.23  
Year to date precipitation 28.86 23.17  
Snow  
Snow 0.00 in 0.00 in 0.00 in (1894)
Month to date snowfall 0.0 0.0  
Since 1 June snowfall 0.0 0.0  
Since 1 July snowfall 0.0 0.0  
Snow Depth 0.00 in    
Sea Level Pressure  
Sea Level Pressure 30.24 in    
Wind  
Wind Speed 6 mph (West)    
Max Wind Speed 14 mph    
Max Gust Speed 16 mph    
Visibility 10 miles    
Events      
T = Trace of Precipitation, MM = Missing Value Source: NWS Daily Summary

Daily Weather History Graph

Daily Weather History Graph

Search for Another Location

Airport or City:

Trip Planner

Search our weather history database for the weather conditions in past years. The results will help you decide how hot, cold, wet, or windy it might be!

Date:

Astronomy

Jul. 15, 2013 Rise Set
Actual Time 5:47 AM EDT 8:29 PM EDT
Civil Twilight 5:15 AM EDT 9:00 PM EDT
Nautical Twilight 4:36 AM EDT 9:40 PM EDT
Astronomical Twilight 3:51 AM EDT 10:24 PM EDT
Moon 1:02 PM EDT (7/15) No Moon Set
Length of Visible Light 15h 44m
Length of Day
14h 41m
Waxing Crescent, 45% of the Moon is Illuminated
Jul 15
Waxing Crescent
Jul 15
First Quarter
Jul 22
Full
Jul 29
Last Quarter
Aug 6
New

Hourly Weather History & Observations

Time (EDT) Temp. Heat Index Dew Point Humidity Pressure Visibility Wind Dir Wind Speed Gust Speed Precip Events Conditions
12:51 AM 78.1 °F - 73.9 °F 87% 30.29 in 10.0 mi SW 5.8 mph - N/A   Clear
1:51 AM 77.0 °F - 73.0 °F 88% 30.29 in 10.0 mi SW 3.5 mph - N/A   Clear
2:51 AM 75.9 °F - 72.0 °F 87% 30.28 in 10.0 mi WSW 4.6 mph - N/A   Clear
3:51 AM 75.0 °F - 72.0 °F 90% 30.28 in 10.0 mi West 4.6 mph - N/A   Clear
4:51 AM 75.0 °F - 71.1 °F 87% 30.28 in 10.0 mi WNW 4.6 mph - N/A   Clear
5:51 AM 75.0 °F - 71.1 °F 87% 30.29 in 10.0 mi Calm Calm - N/A   Clear
6:51 AM 75.9 °F - 72.0 °F 87% 30.30 in 10.0 mi West 3.5 mph - N/A   Clear
7:51 AM 78.1 °F - 73.0 °F 84% 30.30 in 10.0 mi West 5.8 mph - N/A   Clear
8:51 AM 82.0 °F 87.4 °F 73.0 °F 74% 30.30 in 10.0 mi West 5.8 mph - N/A   Clear
9:51 AM 84.9 °F 92.1 °F 73.9 °F 69% 30.29 in 10.0 mi WNW 5.8 mph - N/A   Clear
10:51 AM 87.1 °F 93.6 °F 72.0 °F 61% 30.27 in 10.0 mi West 8.1 mph - N/A   Clear
11:51 AM 89.1 °F 94.1 °F 70.0 °F 53% 30.26 in 10.0 mi NW 5.8 mph - N/A   Clear
12:51 PM 90.0 °F 96.4 °F 71.1 °F 54% 30.25 in 10.0 mi WNW 5.8 mph - N/A   Clear
1:51 PM 91.0 °F 97.6 °F 71.1 °F 52% 30.23 in 10.0 mi WNW 9.2 mph 16.1 mph N/A   Clear
2:51 PM 93.0 °F 100.1 °F 71.1 °F 49% 30.22 in 10.0 mi NW 4.6 mph - N/A   Partly Cloudy
3:51 PM 91.9 °F 99.5 °F 72.0 °F 52% 30.21 in 10.0 mi NW 9.2 mph - N/A   Partly Cloudy
4:51 PM 93.0 °F 101.9 °F 73.0 °F 52% 30.19 in 10.0 mi NW 8.1 mph - N/A   Partly Cloudy
5:51 PM 91.9 °F 99.5 °F 72.0 °F 52% 30.18 in 10.0 mi West 10.4 mph - N/A   Partly Cloudy
6:51 PM 91.0 °F 99.3 °F 73.0 °F 55% 30.17 in 10.0 mi WNW 10.4 mph - N/A   Clear
7:51 PM 88.0 °F 95.6 °F 73.0 °F 61% 30.17 in 10.0 mi WNW 6.9 mph - N/A   Clear
8:51 PM 86.0 °F 95.1 °F 75.0 °F 70% 30.17 in 10.0 mi WSW 6.9 mph - N/A   Clear
9:51 PM 84.9 °F 93.3 °F 75.0 °F 72% 30.18 in 10.0 mi West 5.8 mph - N/A   Clear
10:51 PM 84.0 °F 91.9 °F 75.0 °F 74% 30.19 in 10.0 mi West 4.6 mph - N/A   Clear
11:51 PM 82.0 °F 88.6 °F 75.0 °F 79% 30.19 in 10.0 mi West 4.6 mph - N/A   Partly Cloudy